Regional Weather Roundup
Issued by NWS

Home | Current Version | Previous Version | Text Only | Print | Product List | Glossary On
Versions: 1 2 3 4 5 6 7 8 9 10 11 12 13 14 15 16 17 18 19 20 21 22 23 24 25 26 27 28 29 30 31 32 33 34 35 36 37 38 39 40 41 42 43 44 45 46 47 48 49 50
000
ASUS44 KLUB 261701
RWRTX
WEST TEXAS WEATHER ROUNDUP
NATIONAL WEATHER SERVICE LUBBOCK TX
1200 PM CDT THU MAY 26 2016

NOTE: "FAIR" INDICATES FEW OR NO CLOUDS BELOW 12,000 FEET WITH NO
SIGNIFICANT WEATHER AND/OR OBSTRUCTIONS TO VISIBILITY.

TXZ004-006>008-010-012-014-016-OKZ002-261800-
TEXAS PANHANDLE/OKLAHOMA PANHANDLE

CITY           SKY/WX    TMP DP  RH WIND       PRES   REMARKS
AMARILLO       SUNNY     84  36  18 SW14      29.82F
BORGER         SUNNY     83  47  28 SW6       29.79F
CANADIAN       LGT RAIN  80  68  67 S14       29.78F
DALHART        SUNNY     78  35  21 S7        29.84S
DUMAS          MOSUNNY   80  33  18 W8        29.82F
GUYMON         CLOUDY    75  42  30 VRB3      29.77F
HEREFORD       SUNNY     84  25  11 W17G26    29.85F
$$

TXZ026-029-035-045-048-261800-
SOUTHERN PANHANDLE/SOUTH PLAINS/ROLLING PLAINS

CITY           SKY/WX    TMP DP  RH WIND       PRES   REMARKS
CHILDRESS      MOSUNNY   88  61  40 S23G33    29.79F HAZE
LUBBOCK        MOSUNNY   87  41  19 SW13      29.84F
SNYDER           N/A     83  67  59 S14G21    29.86F
$$

TXZ052-054-060>062-072-078-127-140-154-169-261800-
PERMIAN BASIN/CONCHO VALLEY/BIG COUNTRY/EDWARDS PLATEAU

CITY           SKY/WX    TMP DP  RH WIND       PRES   REMARKS
ABILENE        CLOUDY    79  70  74 S20G28    29.86F
BROWNWOOD      CLOUDY    77  73  88 SE10G18   29.88F
JUNCTION       MOSUNNY   82  70  66 S18G29    29.88F
MIDLAND        SUNNY     92  32  12 SW13G22   29.86F
ODESSA         SUNNY     92  30  11 W17G28    29.87F
SAN ANGELO     SUNNY     84  68  58 S22G28    29.86F
WINK           SUNNY     89  33  13 MISG      29.85F
$$

TXZ055-058-074-075-080-082-261800-
FAR WEST/SOUTHWEST MOUNTAINS/TRANS PECOS

CITY           SKY/WX    TMP DP  RH WIND       PRES   REMARKS
DRYDEN           N/A     91  58  32 S8        29.85F
EL PASO        MOSUNNY   77  32  19 W14G26    29.95F
FORT STOCKTON  SUNNY     92  45  19 W15G29    29.87F
MARFA          SUNNY     82  43  25 SW30G38   30.00F
PRESIDIO       FAIR      90  45  20 S10G17    29.90F
$$

TXZ014-016-019-021>030-083-261800
TEXAS TECH WEST TEXAS MESONET/TEXAS PANHANDLE/NORTHERN SOUTH PLAINS

CITY           SKY/WX    TMP DP  RH WIND       PRES   REMARKS
ABERNATHY 5ENE   N/A     85  44  23 W14G21    29.87F
AMARILLO 9NNE    N/A     86  34  15 SW14      29.81F
AMARILLO 7SSE    N/A     83  33  16 SW15      29.84F
AMHERST 1NE      N/A     85  26  12 SW16G24   29.87F
BOOTLEG 11WNW    N/A     80  24  13 SW24G32   29.90F
CANADIAN 6E      N/A     82  67  60 S18       29.78S
CAPROCK CYN SP   N/A     84  65  51 S12       29.82F
CHILDRESS 2NNE   N/A     88  58  36 S25G35    29.80F
CLARENDON 2WSW   N/A     82  66  59 SE15G22   29.83F
CLAUDE 12SW      N/A     84  44  24 S2        29.84F
DIMMITT 2NE      N/A     85  26  11 SW15G24   29.86F
FLOYDADA 2NNE    N/A     85  46  25 SW13      29.85F
FRIONA 2NE       N/A     82  25  12 SW18G26   29.88F
GOODLETT 3W      N/A     89  56  32 S25G35    29.79F
HART 3N          N/A     85  28  12 SW16G24   29.86F
HEREFORD 2NW     N/A     85  21   9 SW20      29.87F
MCLEAN 1E        N/A     81  64  57 S17G23    29.83F
MEMPHIS 1NE      N/A     85  64  49 S16G24    29.80F
MULESHOE 2SSW    N/A     83  26  12 SW13G21   29.88F
OLTON 6S         N/A     84  30  14 SW15G24   29.86F
PALO DURO SP     N/A     85  35  17 SW12      29.85F
PAMPA 2E         N/A     81  61  50 S17G23    29.84S
PLAINVIEW 1S     N/A     83  47  28 SW7G14    29.86F
SILVERTON 7ESE   N/A     85  52  31 SW8       29.83F
TULIA 2ENE       N/A     84  42  23 W12       29.86F
TURKEY 2WSW      N/A     84  65  52 SE18G24   29.81F
UMBARGER 3NNE    N/A     86  28  12 SW16      29.86F
$$

TXZ033>036-039>041-045>048-261800
TEXAS TECH WEST TEXAS MESONET/SOUTH PLAINS

CITY           SKY/WX    TMP DP  RH WIND       PRES   REMARKS
AIKEN 3WSW       N/A     86  45  23 W14       29.87S
ANDREWS 2NE      N/A     87  36  16 SW17G24   29.90F
ANTON 6SSW       N/A     87  31  13 W16G22    29.86F
BROWNFIELD 2S    N/A     87  27  11 SW13      29.87F
DENVR CTY 7WNW   N/A     85  25  11 SW17G28   29.90F
GAIL 2ESE        N/A     86  62  43 S9        29.85F
LAMESA 2SE       N/A     89  37  16 SW14      29.87F
LEVELLAND 4S     N/A     86  26  11 SW18G25   29.88F
LUBBOCK 3WNW     N/A     86  37  17 W13G20    29.86F
MORTON 1ENE      N/A     85  21   9 SW23G31   29.88F
ODONNELL 1N      N/A     88  33  14 W15       29.87F
PLAINS 3N        N/A     85  28  12 SW16G23   29.90F
RALLS 1SE        N/A     85  53  33 S15G21    29.87F
REESE CENTER     N/A     86  28  12 W16       29.87F
SEAGRAVES 1SW    N/A     88  27  11 SW16      29.88F
SEMINOLE 2NNE    N/A     87  27  11 SW14G22   29.88F
SLATON 2NE       N/A     87  40  19 SW15G21   29.87F
SNYDER 3E        N/A     83  68  60 S16G22    29.86F
SUNDOWN 8SW      N/A     85  27  12 W20G26    29.88F
TAHOKA 3NNE      N/A     87  34  15 SW14      29.87F
WOLFFORTH 6SSW   N/A     87  26  10 SW15G21   29.87F
$$

TXZ031-032-036>038-042>044-261800-
TEXAS TECH WEST TEXAS MESONET/ROLLING PLAINS

CITY           SKY/WX    TMP DP  RH WIND       PRES   REMARKS
ASPERMONT 3NE    N/A     85  71  63 SE16G24   29.84F
FLUVANNA 3WNW    N/A     84  62  46 S15G22    29.87F
GRAHAM 5SSW      N/A     83  61  47 S9G16     29.86F
GUTHRIE 10WSW    N/A     86  66  50 S22G29    29.82F
HASKELL 1NW      N/A     79  69  72 SE12G17   29.84F
JAYTON 1SSE      N/A     86  67  53 S14G21    29.83F
KNOX CITY 3NW    N/A     84  66  54 SE23G30   29.83S
LK A HENRY 1NW   N/A     85  63  47 S12       29.84F
NORTHFIELD 1S    N/A     86  65  49 S17G25    29.81F
ODELL 4ENE       N/A     85  65  50 S18G26    29.81S
PADUCAH 10SW     N/A     85  64  48 S22G31    29.82F
POST 1NE         N/A     84  63  49 S13       29.85F
RRING SPRGS 3N   N/A     82  66  58 S16G25    29.85S
SEYMOUR 3NW      N/A     81  70  68 S18G29    29.84R
SPUR 1W          N/A     84  63  48 S14G21    29.84F
WEINERT 2NNE     N/A     79  70  75 S22       29.84F
WHITE RVR 6NE    N/A     82  62  50 S13       29.85F
$$

TXZ052-054-060>062-072-078-127-140-154-169-261800-
TEXAS TECH WEST TEXAS MESONET/PERMIAN BASIN/
CONCHO VALLEY/BIG COUNTRY/EDWARDS PLATEAU

CITY           SKY/WX    TMP DP  RH WIND       PRES   REMARKS
COYANOSA 2N      N/A     93  40  16 SW13      29.86F
JUNCTION 1SSW    N/A     83  72  67 S17       29.90S
MERTZON 3NNE     N/A     83  67  58 S18       29.89F
SAN ANGELO 7NW   N/A     84  67  57 SE15      29.88F
STRLNG CT 4WSW   N/A     86  65  48 S18       29.88F
ST LAWRNCE 5SW   N/A     89  51  26 S16       29.88F
SWEETWATR 11SW   N/A     81  69  66 S20       29.89F
WALL 1E          N/A     83  68  59 S16       29.89F
$$

TXZ055-058-074-075-080-082-261800-
TEXAS TECH WEST TEXAS MESONET/FAR WEST/SOUTHWEST MOUNTAINS/TRANS PECOS

CITY           SKY/WX    TMP DP  RH WIND       PRES   REMARKS
PRSMN GAP BBNP   N/A     92  46  20 W10       29.91F
GUADLPE MTN NP   N/A     72  25  17 W10G20    30.03S
$$




USA.gov is the U.S. government's official web portal to all federal, state and local government web resources and services.